Hourly Data Report for May 07, 2012

All times are specified in Local Standard Time (LST). Add 1 hour to adjust for Daylight Saving Time where and when it is observed.

SAULT STE MARIE A
ONTARIO

46°29'06.000" N
84°30'35.000" W
192.00 m
6057591
71260
YAM

Download Data

Hourly Data (May 2012)
Hourly Data Report for May 7, 2012
Temp Definition
°C
Dew Point Temp Definition
°C
Rel Hum Definition
%
Wind Dir Definition
10's deg

Wind Spd Definition
km/h
Visibility Definition
km
Stn Press Definition
kPa
Hmdx Definition


Wind Chill Definition


Weather Definition


TIME
00:00 Legend Double Dagger 7.9 1.5 64 9 5 10.0 99.57     LegendNANA
01:00 Legend Double Dagger 7.9 2.2 67 7 11 10.0 99.50     Mostly Cloudy
02:00 Legend Double Dagger 7.5 1.6 66 9 8 10.0 99.37     LegendNANA
03:00 Legend Double Dagger 6.6 1.1 68 12 6 10.0 99.33     LegendNANA
04:00 Legend Double Dagger 7.2 1.7 68 9 5 10.0 99.27     Mostly Cloudy
05:00 Legend Double Dagger 8.0 2.9 70   0 10.0 99.31     LegendNANA
06:00 Legend Double Dagger 7.9 4.3 78   0 10.0 99.34     LegendNANA
07:00 Legend Double Dagger 8.9 2.5 64 8 8 10.0 99.31     Cloudy
08:00 Legend Double Dagger 10.5 1.1 52 8 11 10.0 99.28     LegendNANA
09:00 Legend Double Dagger 11.8 0.6 46 11 11 10.0 99.19     Rain Showers
10:00 Legend Double Dagger 11.1 2.7 56 11 8 10.0 99.16     Cloudy
11:00 Legend Double Dagger 13.3 2.3 47 11 15 10.0 99.01     LegendNANA
12:00 Legend Double Dagger 13.7 0.4 40 10 14 10.0 99.00     LegendNANA
13:00 Legend Double Dagger 12.7 0.5 43 11 13 10.0 98.99     Cloudy
14:00 Legend Double Dagger 12.8 1.5 46 10 15 10.0 98.94     LegendNANA
15:00 Legend Double Dagger 12.9 2.5 49 9 12 10.0 98.90     LegendNANA
16:00 Legend Double Dagger 12.9 3.1 51 10 11 10.0 98.84     Cloudy
17:00 Legend Double Dagger 13.1 3.5 52 9 8 10.0 98.82     LegendNANA
18:00 Legend Double Dagger 13.0 3.4 52 9 6 10.0 98.82     LegendNANA
19:00 Legend Double Dagger 12.8 3.0 51 10 8 10.0 98.76     Cloudy
20:00 Legend Double Dagger 12.0 4.3 59   0 10.0 98.76     LegendNANA
21:00 Legend Double Dagger 10.9 4.6 65   0 10.0 98.76     LegendNANA
22:00 Legend Double Dagger 10.2 5.8 74   0 10.0 98.72     Mostly Cloudy
23:00 Legend Double Dagger 9.8 5.0 72   0 10.0 98.73     LegendNANA

Notes on Data Quality.

Legend

  • E = Estimated
  • M = Missing
  • NA = Not Available
  • ‡ = Partner data that is not subject to review by the National Climate Archives
Date modified: